Homestead AFB, FL

9:07 AM EDT on August 20, 2017 (GMT -0400)
Dade County-Homestead Regional

Weather History for KHST - November, 2012

Change the Weather History Date:

Thursday, November 8, 2012

  Actual Average Record
Temperature  
Mean Temperature 61 °F -  
Max Temperature 68 °F 81 °F 88 °F (1946)
Min Temperature 54 °F 61 °F 46 °F (1969)
Degree Days  
Heating Degree Days 4    
Growing Degree Days 11 (Base 50)    
Moisture  
Dew Point 45 °F    
Average Humidity 57    
Maximum Humidity 94    
Minimum Humidity 33    
Precipitation  
Precipitation 0.00 in - - ()
Sea Level Pressure  
Sea Level Pressure 30.08 in    
Wind  
Wind Speed 7 mph (NNW)    
Max Wind Speed 17 mph    
Max Gust Speed 26 mph    
Visibility 10 miles    
Events      
Averages and records for this station are not official NWS values.
T = Trace of Precipitation, MM = Missing Value Source: NWS Daily Summary

Daily Weather History Graph

Daily Weather History Graph

Search for Another Location

Airport or City:

Trip Planner

Search our weather history database for the weather conditions in past years. The results will help you decide how hot, cold, wet, or windy it might be!

Date:

Astronomy

Nov. 08, 2012 Rise Set
Actual Time 6:34 AM EST 5:35 PM EST
Civil Twilight 6:10 AM EST 5:59 PM EST
Nautical Twilight 5:42 AM EST 6:27 PM EST
Astronomical Twilight 5:15 AM EST 6:54 PM EST
Moon 1:02 AM EST (11/8) 1:45 PM EST (11/8)
Length of Visible Light 11h 49m
Length of Day
11h 01m
Waning Crescent, 33% of the Moon is Illuminated
Nov 8
Waning Crescent
Nov 13
New
Nov 20
First Quarter
Nov 28
Full
Dec 6
Last Quarter

Hourly Weather History & Observations

Time (EST) Temp. Dew Point Humidity Pressure Visibility Wind Dir Wind Speed Gust Speed Precip Events Conditions
12:55 AM 61.0 °F 49.3 °F 65% 30.01 in 10.0 mi NNW 3.5 mph - N/A   Overcast
1:55 AM 60.4 °F 49.6 °F 68% 30.01 in 10.0 mi NNW 3.5 mph - N/A   Overcast
2:55 AM 60.1 °F 50.7 °F 71% 30.01 in 10.0 mi NW 3.5 mph - N/A   Mostly Cloudy
3:55 AM 56.7 °F 53.6 °F 89% 30.01 in 10.0 mi Calm Calm - N/A   Clear
4:55 AM 55.4 °F 52.9 °F 91% 30.03 in 10.0 mi Calm Calm - N/A   Partly Cloudy
5:55 AM 54.3 °F 52.5 °F 94% 30.04 in 10.0 mi Calm Calm - N/A   Clear
6:55 AM 55.2 °F 51.6 °F 88% 30.07 in 10.0 mi North 4.6 mph - N/A   Clear
7:55 AM 59.9 °F 50.4 °F 71% 30.09 in 10.0 mi North 4.6 mph - N/A   Mostly Cloudy
8:55 AM 62.2 °F 48.7 °F 61% 30.11 in 10.0 mi North 13.8 mph - N/A   Scattered Clouds
9:55 AM 64.9 °F 44.6 °F 48% 30.12 in 10.0 mi North 15.0 mph - N/A   Partly Cloudy
10:55 AM 66.9 °F 41.5 °F 40% 30.13 in 10.0 mi North 12.7 mph - N/A   Clear
11:55 AM 67.8 °F 37.9 °F 33% 30.11 in 10.0 mi North 15.0 mph - N/A   Clear
12:55 PM 68.0 °F 39.7 °F 36% 30.09 in 10.0 mi NNW 15.0 mph 26.5 mph N/A   Clear
1:55 PM 68.2 °F 39.6 °F 35% 30.07 in 10.0 mi NW 17.3 mph 24.2 mph N/A   Clear
2:55 PM 68.7 °F 40.1 °F 35% 30.06 in 10.0 mi NW 13.8 mph 23.0 mph N/A   Clear
3:55 PM 68.0 °F 38.5 °F 34% 30.06 in 10.0 mi NNW 15.0 mph 23.0 mph N/A   Clear
4:55 PM 66.6 °F 39.2 °F 37% 30.07 in 10.0 mi NNW 13.8 mph - N/A   Clear
5:45 PM 64.4 °F 37.4 °F 37% 30.08 in 10.0 mi North 10.4 mph - N/A   Light Drizzle
5:55 PM 63.9 °F 38.7 °F 39% 30.09 in 10.0 mi North 10.4 mph - 0.00 in   Light Drizzle
6:55 PM 61.2 °F 40.5 °F 47% 30.10 in 10.0 mi North 5.8 mph - 0.00 in   Clear
7:55 PM 59.0 °F 42.4 °F 54% 30.12 in 10.0 mi NNW 5.8 mph - N/A   Clear
8:55 PM 57.6 °F 45.3 °F 64% 30.13 in 10.0 mi NW 6.9 mph - N/A   Clear
9:55 PM 56.7 °F 46.4 °F 69% 30.13 in 10.0 mi NNW 8.1 mph - N/A   Clear
10:55 PM 58.3 °F 47.1 °F 66% 30.14 in 10.0 mi NNW 6.9 mph - N/A   Partly Cloudy
11:55 PM 60.3 °F 48.2 °F 64% 30.13 in 10.0 mi NNW 9.2 mph - N/A   Overcast